• In Belgium
  • List of Countries
  • For 7 days
  • Water Temperature
  • Satellite Maps
  • Weather Map
  • Weather Widgets
  • user-avatar
    Login

    Hourly Weather Blankenberge

    Today, 19 October, Thursday

    Time Temperature Precipitation Wind Pressure Humidity
    00:00 +14°C° 0 mm 3 mps 757 mmHg 90%
    01:00 +14°C° 0 mm 3 mps 757 mmHg 90%
    02:00 +14°C° 0 mm 3 mps 757 mmHg 89%
    03:00 +14°C° 0 mm 4 mps 757 mmHg 88%
    04:00 +13°C° 0 mm 4 mps 757 mmHg 88%
    05:00 +13°C° 0 mm 4 mps 756 mmHg 88%
    06:00 +13°C° 0 mm 5 mps 756 mmHg 85%
    07:00 +14°C° 0 mm 6 mps 756 mmHg 81%
    08:00 +15°C° 0 mm 6 mps 756 mmHg 77%
    09:00 +16°C° 0 mm 7 mps 756 mmHg 73%
    10:00 +18°C° 0 mm 7 mps 755 mmHg 69%
    11:00 +20°C° 0 mm 7 mps 755 mmHg 66%
    12:00 +22°C° 0 mm 7 mps 754 mmHg 62%
    13:00 +22°C° 0.1 mm 7 mps 754 mmHg 64%
    14:00 +21°C° 0.1 mm 7 mps 754 mmHg 65%
    15:00 +21°C° 0.1 mm 7 mps 753 mmHg 67%
    16:00 +20°C° 0.1 mm 7 mps 753 mmHg 70%
    17:00 +19°C° 0.1 mm 6 mps 753 mmHg 72%
    18:00 +17°C° 0.1 mm 6 mps 753 mmHg 75%
    19:00 +17°C° 0 mm 6 mps 753 mmHg 75%
    20:00 +17°C° 0 mm 7 mps 754 mmHg 75%
    21:00 +16°C° 0 mm 7 mps 754 mmHg 75%
    22:00 +16°C° 0 mm 8 mps 753 mmHg 75%
    23:00 +16°C° 0 mm 8 mps 753 mmHg 75%

    Tomorrow, 20 October, Friday

    Time Temperature Precipitation Wind Pressure Humidity
    00:00 +16°C° 0 mm 9 mps 753 mmHg 75%
    01:00 +15°C° 0.6 mm 9 mps 753 mmHg 78%
    02:00 +14°C° 0.6 mm 10 mps 753 mmHg 80%
    03:00 +13°C° 0.6 mm 10 mps 753 mmHg 83%
    04:00 +13°C° 0.4 mm 10 mps 754 mmHg 82%
    05:00 +12°C° 0.4 mm 9 mps 754 mmHg 82%
    06:00 +12°C° 0.4 mm 9 mps 754 mmHg 82%
    07:00 +12°C° 0 mm 9 mps 755 mmHg 79%
    08:00 +13°C° 0 mm 10 mps 756 mmHg 75%
    09:00 +13°C° 0 mm 10 mps 756 mmHg 71%
    10:00 +14°C° 0 mm 10 mps 757 mmHg 67%
    11:00 +14°C° 0 mm 10 mps 757 mmHg 64%
    12:00 +14°C° 0 mm 10 mps 758 mmHg 61%
    13:00 +14°C° 0 mm 10 mps 758 mmHg 61%
    14:00 +15°C° 0 mm 9 mps 758 mmHg 62%
    15:00 +15°C° 0 mm 9 mps 758 mmHg 63%
    16:00 +13°C° 0 mm 9 mps 758 mmHg 64%
    17:00 +13°C° 0 mm 8 mps 758 mmHg 65%
    18:00 +14°C° 0 mm 7 mps 759 mmHg 67%
    19:00 +14°C° 0 mm 7 mps 758 mmHg 66%
    20:00 +14°C° 0 mm 7 mps 758 mmHg 66%
    21:00 +12°C° 0 mm 7 mps 758 mmHg 66%
    22:00 +12°C° 0 mm 7 mps 758 mmHg 66%
    23:00 +12°C° 0 mm 8 mps 757 mmHg 67%

    Day after tomorrow, 21 October, Saturday

    Time Temperature Precipitation Wind Pressure Humidity
    00:00 +12°C° 0 mm 8 mps 757 mmHg 67%
    01:00 +12°C° 0.3 mm 9 mps 756 mmHg 72%
    02:00 +12°C° 0.3 mm 9 mps 755 mmHg 77%
    03:00 +12°C° 0.3 mm 10 mps 755 mmHg 82%
    04:00 +13°C° 0.5 mm 9 mps 755 mmHg 84%
    05:00 +13°C° 0.5 mm 9 mps 755 mmHg 85%
    06:00 +15°C° 0.5 mm 9 mps 755 mmHg 87%
    07:00 +15°C° 0.1 mm 9 mps 755 mmHg 84%
    08:00 +14°C° 0.1 mm 10 mps 755 mmHg 80%
    09:00 +14°C° 0.1 mm 11 mps 755 mmHg 77%
    10:00 +14°C° 0.1 mm 11 mps 755 mmHg 71%
    11:00 +15°C° 0.1 mm 12 mps 755 mmHg 65%
    12:00 +15°C° 0.1 mm 13 mps 755 mmHg 60%
    13:00 +15°C° 0.2 mm 12 mps 755 mmHg 60%
    14:00 +15°C° 0.2 mm 12 mps 755 mmHg 60%
    15:00 +14°C° 0.2 mm 12 mps 755 mmHg 60%
    16:00 +13°C° 0.1 mm 12 mps 755 mmHg 61%
    17:00 +12°C° 0.1 mm 12 mps 755 mmHg 63%
    18:00 +12°C° 0.1 mm 12 mps 755 mmHg 64%
    19:00 +12°C° 0.2 mm 13 mps 755 mmHg 65%
    20:00 +10°C° 0.2 mm 13 mps 755 mmHg 65%
    21:00 +10°C° 0.2 mm 13 mps 755 mmHg 65%
    22:00 +10°C° 0.5 mm 13 mps 755 mmHg 69%
    23:00 +10°C° 0.5 mm 12 mps 756 mmHg 72%

    22 October, Sunday

    Time Temperature Precipitation Wind Pressure Humidity
    00:00 +10°C° 0.5 mm 12 mps 756 mmHg 75%
    01:00 +9°C° 0.4 mm 11 mps 756 mmHg 75%
    02:00 +9°C° 0.4 mm 11 mps 756 mmHg 76%
    03:00 +9°C° 0.4 mm 11 mps 756 mmHg 76%
    04:00 +9°C° 0.3 mm 10 mps 756 mmHg 77%
    05:00 +8°C° 0.3 mm 10 mps 756 mmHg 77%
    06:00 +8°C° 0.3 mm 10 mps 756 mmHg 78%
    07:00 +9°C° 0.1 mm 10 mps 757 mmHg 75%
    08:00 +9°C° 0.1 mm 11 mps 757 mmHg 73%
    09:00 +11°C° 0.1 mm 11 mps 757 mmHg 70%
    10:00 +9°C° 0.9 mm 11 mps 757 mmHg 73%
    11:00 +9°C° 0.9 mm 11 mps 758 mmHg 76%
    12:00 +8°C° 0.9 mm 11 mps 758 mmHg 79%
    13:00 +9°C° 0.3 mm 11 mps 758 mmHg 77%
    14:00 +9°C° 0.3 mm 10 mps 759 mmHg 75%
    15:00 +11°C° 0.3 mm 10 mps 759 mmHg 73%
    16:00 +9°C° 0.5 mm 10 mps 760 mmHg 74%
    17:00 +9°C° 0.5 mm 10 mps 760 mmHg 76%
    18:00 +10°C° 0.5 mm 9 mps 761 mmHg 77%
    19:00 +10°C° 0.4 mm 9 mps 761 mmHg 77%
    20:00 +10°C° 0.4 mm 9 mps 762 mmHg 77%
    21:00 +10°C° 0.4 mm 9 mps 762 mmHg 77%
    22:00 +10°C° 0.2 mm 9 mps 762 mmHg 78%
    23:00 +10°C° 0.2 mm 9 mps 763 mmHg 78%

    23 October, Monday

    Time Temperature Precipitation Wind Pressure Humidity
    00:00 +10°C° 0.2 mm 9 mps 763 mmHg 79%
    01:00 +10°C° 0 mm 8 mps 763 mmHg 81%
    02:00 +9°C° 0 mm 8 mps 764 mmHg 82%
    03:00 +9°C° 0 mm 7 mps 764 mmHg 84%
    04:00 +9°C° 0.1 mm 7 mps 764 mmHg 84%
    05:00 +10°C° 0.1 mm 6 mps 764 mmHg 85%
    06:00 +10°C° 0.1 mm 6 mps 765 mmHg 85%
    07:00 +10°C° 0.7 mm 6 mps 765 mmHg 87%
    08:00 +11°C° 0.7 mm 7 mps 765 mmHg 89%
    09:00 +11°C° 0.7 mm 7 mps 765 mmHg 91%
    10:00 +12°C° 0.8 mm 8 mps 765 mmHg 90%
    11:00 +12°C° 0.8 mm 8 mps 765 mmHg 90%
    12:00 +13°C° 0.8 mm 8 mps 765 mmHg 90%
    13:00 +13°C° 0.3 mm 8 mps 765 mmHg 89%
    14:00 +13°C° 0.3 mm 9 mps 765 mmHg 88%
    15:00 +15°C° 0.3 mm 9 mps 765 mmHg 87%
    16:00 +15°C° 0.4 mm 9 mps 765 mmHg 89%
    17:00 +13°C° 0.4 mm 9 mps 765 mmHg 90%
    18:00 +13°C° 0.4 mm 8 mps 766 mmHg 91%
    19:00 +13°C° 0.4 mm 8 mps 766 mmHg 91%
    20:00 +13°C° 0.4 mm 8 mps 766 mmHg 91%
    21:00 +13°C° 0.4 mm 8 mps 766 mmHg 90%
    22:00 +13°C° 0.3 mm 8 mps 766 mmHg 90%
    23:00 +13°C° 0.3 mm 8 mps 766 mmHg 90%

    24 October, Tuesday

    Time Temperature Precipitation Wind Pressure Humidity
    00:00 +14°C° 0.3 mm 7 mps 766 mmHg 90%
    01:00 +14°C° 0.1 mm 7 mps 766 mmHg 91%
    02:00 +14°C° 0.1 mm 7 mps 766 mmHg 91%
    03:00 +14°C° 0.1 mm 7 mps 766 mmHg 91%
    04:00 +14°C° 0 mm 7 mps 766 mmHg 91%
    05:00 +14°C° 0 mm 7 mps 767 mmHg 91%
    06:00 +12°C° 0 mm 7 mps 767 mmHg 92%
    07:00 +14°C° 0 mm 7 mps 767 mmHg 90%
    08:00 +14°C° 0 mm 6 mps 767 mmHg 88%
    09:00 +14°C° 0 mm 6 mps 768 mmHg 86%
    10:00 +15°C° 0 mm 6 mps 768 mmHg 82%
    11:00 +16°C° 0 mm 6 mps 768 mmHg 78%
    12:00 +16°C° 0 mm 6 mps 768 mmHg 74%
    13:00 +17°C° 0 mm 6 mps 768 mmHg 74%
    14:00 +17°C° 0 mm 6 mps 767 mmHg 73%
    15:00 +17°C° 0 mm 6 mps 767 mmHg 72%
    16:00 +16°C° 0 mm 5 mps 767 mmHg 76%
    17:00 +14°C° 0 mm 5 mps 768 mmHg 81%
    18:00 +13°C° 0 mm 5 mps 768 mmHg 85%
    19:00 +13°C° 0 mm 5 mps 768 mmHg 86%
    20:00 +12°C° 0 mm 5 mps 768 mmHg 87%
    21:00 +12°C° 0 mm 5 mps 768 mmHg 88%
    22:00 +12°C° 0 mm 5 mps 768 mmHg 89%
    23:00 +10°C° 0 mm 5 mps 768 mmHg 89%
    Show more